Starlink 30936

operational
NORAD ID: 58534 Int'l Des: 2023-192 Owner: SPXS Country: US Constellation: starlink
LEOCIRCULAR

About Starlink 30936

Description loading...

Live Position

Loading 3D Globe...

Upcoming Passes

Altitude History

Altitude vs Time

uPlot chart will show altitude changes over time

Two-Line Element Set

1 58534U 23192D 25350.52767511 .00004673 00000-0 16987-3 0 9995
2 58534 53.1603 79.0535 0001189 91.1188 268.9950 15.30187576113390
Epoch: Dec 16, 2025 • Age: 18 hours

Current Status

Altitude 477.2 km
Velocity 7.63 km/s
Sub-Earth Point -6.08°S, 73.11°E
Launch Date Dec 8, 2023
Age 2 years
Type internet

Technical Details

Classification Payload
Mass 730.00 kg
Dry Mass 700.00 kg
Total Mass 730.00 kg
Length 0.30 m
Diameter 4.10 m
Span 29.00 m
Shape Box + pan
Manufacturer SPXS
Bus Type Starlink V2M
Phase Status In Orbit
Owner/State SPXS/US

Large Constellations

Loading constellations...